EHI
0 0 0 0 0 0 0 0 0 0 0 0 0 0 0 0 0 0 0 0 0 0 0 0 0 0 0 0 0 0 0 0 0 0 0 0 0 0 0 0 0 0 0 0
0 0 0 0 0 0 0 0 0 0 0 0 0 0 0 0 0 0 0 0 0 0 0 0 0 0 0 0 0 0 0 0 0 0 0 0 0 0 0 0 0 0 0 0
0 0 0 0 0 0 0 0 0 0 0 0 0 0 0 0 0 0 0 0 0 0 0 0 0 0 0 0 0 0 0 0 0 0 0 0 0 0 0 0 0 0 0 0
0 0 0 0 0 0 0 0 0 0 0 0 0 0 0 0 0 0 0 0 0 0 0 0 0 0 0 0 0 0 0 0 0 0 0 0 0 0 0 0 0 0 0 0
0 0 0 0 0 0 0 0 0 0 0 0 0 0 0 0 0 0 0 0 0 0 0 0 0 0 0 0 0 0 0 0 0 0 0 0 0 0 0 0 0 0 0 0
0 0 0 0 0 0 0 0 0 0 0 0 0 0 0 0 0 0 0 0 0 0 0 0 0 0 0 0 0 0 0 0 0 0 0 0 0 0 0 0 0 0 0 0
0 0 0 0 0 0 0 0 0 0 0 0 0 0 0 0 0 0 0 0 0 0 0 0 0 0 0 0 0 0 0 0 0 0 0 0 0 0 0 0 0 0 0 0
0 0 0 0 0 0 0 0 0 0 0 0 0 0 0 0 0 0 0 0 0 0 0 0 0 0 0 0 0 0 0 0 0 0 0 0 0 0 0 0 0 0 0 0
0 0 0 0 0 0 0 0 0 0 0 0 0 0 0 0 0 0 0 0 0 0 0 0 0 0 0 0 0 0 0 0 0 0 0 0 0 0 0 0 0 0 0 0
0 0 0 0 0 0 0 0 0 0 0 0 0 0 0 0 0 0 0 0 0 0 0 0 0 0 0 0 0 0 0 0 0 0 0 0 0 0 0 0 0 0 0 0
0 0 0 0 0 0 0 0 0 0 0 0 0 0 0 0 0 0 0 0 0 0 0 0 0 0 0 0 0 0 0 0 0 0 0 0 0 0 0 0 0 0 0 0
0 0 0 0 0 0 0 0 0 0 0 0 0 0 0 0 0 0 0 0 0 0 0 0 0 0 0 0 0 0 0 0 0 0 0 0 0 0 0 0 0 0 0 0
0 0 0 0 0 0 0 0 0 0 0 0 0 0 0 0 0 0 0 0 0 0 0 0 0 0 0 0 0 0 0 0 0 0 0 0 0 0 0 0 0 0 0 0
0 0 0 0 0 0 0 0 0 0 0 0 0 0 0 0 0 0 0 0 0 0 0 0 0 0 0 0 0 0 0 0 0 0 0 0 0 0 0 0 0 0 0 0
0 0 0 0 0 0 0 0 0 0 0 0 0 0 0 0 0 0 0 0 0 0 0 0 0 0 0 0 0 0 0 0 0 0 0 0 0 0 0 0 0 0 0 0
0 0 0 0 0 0 0 0 0 0 0 0 0 0 0 0 0 0 0 0 0 0 0 0 0 0 0 0 0 0 0 0 0 0 0 0 0 0 0 0 0 0 0 0
0 0 0 0 0 0 0 0 0 0 0 0 0 0 0 0 0 0 0 0 0 0 0 0 0 0 0 0 0 0 0 0 0 0 0 0 0 0 0 0 0 0 0 0
0 0 0 0 0 0 0 0 0 0 0 0 0 0 0 0 0 0 0 0 0 0 0 0 0 0 0 0 0 0 0 0 0 0 0 0 0 0 0 0 0 0 0 0
0 0 0 0 0 0 0 0 0 0 0 0 0 0 0 0 0 0 0 0 0 0 0 0 0 0 0 0 0 0 0 0 0 0 0 0 0 0 0 0 0 0 0 0
0 0 0 0 0 0 0 0 0 0 0 0 0 0 0 0 0 0 0 0 0 0 0 0 0 0 0 0 0 0 0 0 0 0 0 0 0 0 0 0 0 0 0 0
0 0 0 0 0 0 0 0 0 0 0 0 0 0 0 0 0 0 0 0 0 0 0 0 0 0 0 0 0 0 0 0 0 0 0 0 0 0 0 0 0 0 0 0
0 0 0 0 0 0 0 0 0 0 0 0 0 0 0 0 0 0 0 0 0 0 0 0 0 0 0 0 0 0 0 0 0 0 0 0 0 0 0 0 0 0 0 0
0 0 0 0 0 0 0 0 0 0 0 0 0 0 0 0 0 0 0 0 0 0 0 0 0 0 0 0 0 0 0 0 0 0 0 0 0 0 0 0 0 0 0 0
0 0 0 0 0 0 0 0 0 0 0 0 0 0 0 0 0 0 0 0 0 0 0 0 0 0 0 0 0 0 0 0 0 0 0 0 0 0 0 0 0 0 0 0
0 0 0 0 0 0 0 0 0 0 0 0 0 0 0 0 0 0 0 0 0 0 0 0 0 0 0 0 0 0 0 0 0 0 0 0 0 0 0 0 0 0 0 0
0 0 0 0 0 0 0 0 0 0 0 0 0 0 0 0 0 0 0 0 0 0 0 0 0 0 0 0 0 0 0 0 0 0 0 0 0 0 0 0 0 0 0 0
Wind_Speed
4 5 8 11 12 9 6 9 12 8 6 8 15 20 14 11 10 10 10 9 8 8 5 5 5 5 5 5 6 7 10 11 11 10 8 8 7 7 7 7 9 10 9 9
4 11 11 7 7 9 11 16 16 12 7 10 14 20 14 15 15 13 13 12 10 7 6 5 5 4 5 6 8 9 10 9 9 8 7 6 7 6 6 6 8 9 9 8
12 4 9 12 11 11 14 15 14 13 12 11 13 18 18 16 14 15 14 13 12 15 14 9 7 6 7 7 8 10 10 11 11 11 11 10 8 5 5 6 6 7 8 7
10 11 8 8 12 13 17 11 13 14 11 8 8 12 12 13 14 16 16 13 13 13 11 10 9 8 8 7 9 11 11 12 11 11 12 12 9 7 4 4 5 6 7 7
9 8 13 16 16 14 9 5 10 12 12 14 13 13 10 8 17 19 17 15 15 15 15 14 11 10 9 9 10 10 12 11 9 9 11 12 9 7 6 6 7 6 5 6
10 6 9 11 13 15 9 6 9 9 9 17 20 15 11 10 17 14 16 16 16 15 14 12 9 10 9 9 10 10 12 11 10 10 10 12 12 11 9 7 6 4 3 4
10 13 12 7 7 9 11 7 6 8 10 13 12 14 15 12 12 17 18 17 18 18 18 16 15 13 12 12 11 11 13 12 10 11 10 10 10 10 9 7 6 4 3 2
6 8 12 13 15 11 15 14 9 7 8 7 11 15 12 12 10 10 12 17 20 19 17 17 16 14 13 13 12 13 14 12 11 12 10 9 9 7 6 6 5 4 3 2
8 8 5 11 10 12 10 14 10 6 7 6 10 8 7 3 4 9 15 18 19 18 17 16 14 12 13 13 12 13 14 12 11 11 11 9 8 8 7 6 5 4 2 2
7 7 5 5 7 12 8 6 7 9 7 8 8 8 9 8 10 14 19 19 18 16 15 15 13 12 10 11 10 11 12 13 11 10 9 9 7 7 7 6 5 4 3 3
8 7 5 4 10 13 12 10 9 8 8 5 5 7 8 14 17 20 19 19 20 19 18 15 13 11 11 11 11 11 11 12 10 9 9 9 7 7 6 5 4 3 2 3
9 6 7 10 9 10 12 12 12 7 8 6 3 6 3 10 15 18 17 16 15 16 15 14 14 13 12 12 11 11 10 11 10 9 9 8 7 6 6 5 4 3 3 3
11 7 5 5 6 9 11 13 14 9 5 4 4 5 4 7 9 11 15 16 15 15 15 13 13 13 13 12 11 10 10 10 9 9 9 8 7 6 5 4 3 3 3 3
10 6 8 7 4 3 7 11 15 11 5 4 4 3 2 7 10 11 13 15 15 16 16 14 13 12 12 11 11 11 10 10 10 9 8 7 6 5 4 3 3 2 3 4
7 6 9 14 14 11 10 9 12 11 7 3 2 2 5 8 11 13 14 16 16 16 16 16 15 13 12 11 11 11 10 9 10 9 8 6 5 5 4 3 2 3 3 4
6 5 6 9 11 10 9 9 9 9 7 5 2 3 1 5 7 9 13 17 18 18 17 16 16 15 15 14 13 12 10 9 9 9 7 6 5 4 3 2 2 3 4 4
6 4 4 5 4 3 6 9 10 8 6 5 3 2 4 5 10 15 16 17 19 18 18 18 18 17 15 15 14 14 11 10 9 8 6 5 5 4 2 2 3 4 4 4
7 4 2 4 3 2 6 4 8 7 6 6 3 3 5 6 5 5 7 14 15 16 16 16 14 13 13 12 13 12 11 10 9 7 6 5 4 3 2 2 3 3 3 4
6 5 1 2 3 5 5 1 4 5 5 5 6 4 4 6 6 2 2 7 10 11 11 11 12 14 14 15 15 14 11 9 8 7 6 5 4 2 1 2 3 3 3 4
5 3 1 2 2 3 4 2 1 4 4 2 4 7 8 9 6 5 3 7 9 11 12 13 14 16 15 14 14 14 11 9 8 7 6 4 3 2 1 2 3 3 3 5
6 4 4 3 3 7 7 4 2 5 5 2 2 5 10 8 5 7 8 9 12 14 15 16 16 14 14 13 13 12 10 8 7 7 5 4 3 1 1 2 3 4 5 5
8 7 6 5 4 9 4 1 4 4 1 1 1 2 7 9 11 12 12 13 15 16 15 16 15 13 11 11 13 12 9 7 7 6 5 3 2 1 2 3 4 4 5 5
7 9 7 9 8 4 1 2 1 2 2 2 3 6 13 13 12 13 13 13 13 15 13 13 16 14 9 8 11 12 8 7 7 6 4 2 2 2 2 3 4 4 4 4
4 4 4 4 6 3 0 1 2 2 3 5 7 9 12 15 14 15 13 13 12 13 13 13 15 13 9 7 8 9 8 7 7 5 3 2 1 2 3 3 3 3 4 5
6 7 5 4 2 1 1 2 4 6 9 11 10 8 12 17 15 14 13 12 11 11 10 10 12 12 10 8 8 7 7 7 6 4 2 1 1 2 3 3 3 4 3 6
5 7 8 7 7 7 5 5 7 9 9 11 13 11 8 12 14 13 11 10 10 10 9 10 10 10 9 8 8 6 6 6 6 3 1 0 1 2 3 3 4 7 9 14
Wind_Direction
190 187 212 212 215 240 277 278 277 278 296 274 259 262 253 241 242 242 243 238 231 221 201 177 157 133 117 117 122 124 124 127 126 123 117 110 101 95 85 79 77 75 73 68
218 231 226 216 221 236 251 265 273 286 278 275 271 269 258 237 231 229 234 230 213 188 178 179 154 131 127 126 123 122 125 124 121 117 111 108 109 97 89 82 72 69 68 64
212 227 210 215 226 235 241 244 255 267 296 288 280 273 254 244 233 231 230 222 198 184 181 174 155 140 130 128 129 125 122 118 118 117 113 110 101 91 79 74 69 63 67 65
235 241 248 228 227 224 248 239 248 257 263 264 244 270 255 233 231 232 229 218 200 184 171 162 152 144 137 130 122 120 120 120 121 122 126 128 125 119 111 105 90 72 64 64
223 208 217 230 232 224 240 235 243 251 253 261 254 263 265 219 225 226 221 210 194 177 166 160 153 143 133 127 121 119 117 115 113 113 118 116 112 111 110 102 92 78 62 58
234 229 216 223 231 227 236 254 257 249 245 247 238 237 261 221 219 217 213 200 180 164 154 144 135 130 124 121 118 119 116 111 110 109 109 117 121 123 119 112 107 89 70 51
241 236 227 211 226 218 208 216 227 215 216 238 207 216 244 238 218 210 203 187 167 158 152 149 146 142 138 131 125 122 119 115 112 109 107 112 118 120 122 123 117 109 88 62
232 250 211 203 209 208 203 204 214 220 217 226 191 220 238 242 242 212 184 163 155 155 155 153 151 146 142 135 129 126 123 120 116 112 109 107 108 109 111 113 114 111 110 104
220 251 219 207 201 196 195 208 222 270 278 239 207 225 258 227 200 156 149 152 156 155 154 151 147 144 142 137 133 131 127 122 118 116 112 107 106 108 110 108 103 102 100 95
206 258 258 212 191 208 212 182 175 212 244 231 207 210 213 186 174 156 156 158 154 151 150 149 148 144 138 133 127 123 126 125 122 119 117 116 111 111 112 107 103 101 87 62
194 232 267 212 211 201 191 199 201 203 241 256 194 232 211 183 174 167 166 162 158 157 156 154 149 142 134 130 129 127 127 126 122 117 114 115 112 111 108 105 106 101 76 45
188 214 250 237 220 205 209 207 197 211 223 231 230 256 275 180 171 165 160 159 156 153 152 150 147 142 140 139 137 134 132 129 126 123 118 116 115 111 107 105 99 85 58 23
174 208 253 255 210 196 213 211 207 222 265 240 206 257 350 130 137 151 151 151 151 149 148 147 149 150 149 147 143 139 135 132 128 124 119 116 116 114 112 107 89 64 34 1
176 205 223 254 272 221 216 204 204 210 229 255 237 210 78 134 141 145 149 150 151 154 155 155 155 154 151 149 145 140 134 133 130 124 121 122 124 123 120 106 75 38 10 347
183 233 244 259 264 255 245 226 204 209 227 240 258 194 198 174 162 157 152 150 152 159 162 164 161 156 151 146 142 139 135 133 131 126 124 127 127 121 112 88 46 12 355 343
188 249 272 270 260 244 242 235 215 217 227 243 302 357 63 107 110 136 153 159 165 170 170 167 163 159 157 153 147 141 136 134 130 127 128 128 125 118 104 67 25 3 348 337
191 225 283 288 283 192 238 218 199 203 208 203 213 227 117 123 156 166 169 173 175 175 172 172 170 165 159 153 147 142 139 133 128 128 129 130 126 117 90 45 17 352 334 327
182 192 259 300 330 255 254 225 184 192 210 196 188 173 160 160 156 161 173 177 176 174 172 169 161 151 142 138 137 133 132 132 130 129 131 130 124 110 72 28 354 326 311 312
176 175 244 294 307 297 304 10 167 183 244 205 195 179 139 116 90 68 197 179 175 166 154 146 140 136 135 137 137 132 130 128 129 133 135 132 125 109 48 353 323 307 304 304
175 165 208 295 299 268 281 321 298 123 269 263 188 184 165 140 150 214 176 139 129 124 126 127 127 129 132 136 134 131 133 134 137 139 136 130 121 103 2 315 301 295 296 291
161 179 203 235 277 275 266 291 95 140 238 306 233 189 172 178 172 134 111 105 113 116 120 124 127 131 134 134 131 130 134 138 136 130 127 119 103 61 317 312 299 301 301 303
166 173 184 177 217 255 264 128 162 204 252 24 16 133 131 110 102 104 105 108 111 114 118 123 122 121 124 129 129 129 133 131 125 124 119 107 76 5 354 331 312 308 308 310
191 186 182 192 212 244 259 196 190 153 128 96 90 109 120 112 109 108 106 107 109 114 115 118 120 118 114 119 128 131 133 130 124 118 111 94 41 359 340 320 313 313 315 313
236 175 168 229 256 253 249 84 64 81 103 101 110 117 118 116 117 113 112 110 110 113 115 119 119 120 116 112 114 124 130 127 121 118 109 80 17 333 325 314 309 312 313 312
204 169 180 232 257 117 262 162 114 92 97 97 88 95 119 120 119 119 117 116 116 114 113 118 123 125 123 118 115 120 124 120 116 114 105 57 329 310 310 313 310 318 294 315
193 176 176 209 203 185 201 156 129 120 119 120 113 99 98 118 121 119 115 117 119 120 117 116 118 122 123 121 120 122 121 120 120 119 125 269 291 298 305 314 317 332 337 334